• în Republica Moldova
  • Lista ţărilor
  • Pe 7 zile
  • Temperatura apei
  • Hartă satelitară
  • Meteo pe hartă
  • Widget-uri
  • user-avatar
    Intrare

    Meteo pe oră la Ostrov

    Astăzi, 23 Octombrie, Marţi

    Timp Temperatura Precipitaţii Vânt Presiune Umiditate
    00:00 +4°C° 0 mm 3 m/s 751 mmHg 90%
    01:00 +3°C° 0 mm 3 m/s 751 mmHg 91%
    02:00 +3°C° 0 mm 3 m/s 751 mmHg 91%
    03:00 +3°C° 0 mm 3 m/s 750 mmHg 92%
    04:00 +2°C° 0 mm 3 m/s 750 mmHg 93%
    05:00 +2°C° 0 mm 3 m/s 749 mmHg 93%
    06:00 +2°C° 0 mm 3 m/s 748 mmHg 92%
    07:00 +2°C° 0 mm 3 m/s 748 mmHg 92%
    08:00 +2°C° 0 mm 3 m/s 747 mmHg 91%
    09:00 +3°C° 0 mm 4 m/s 746 mmHg 87%
    10:00 +4°C° 0 mm 4 m/s 745 mmHg 82%
    11:00 +5°C° 0 mm 5 m/s 744 mmHg 78%
    12:00 +6°C° 0.1 mm 5 m/s 743 mmHg 77%
    13:00 +6°C° 0.1 mm 5 m/s 741 mmHg 77%
    14:00 +5°C° 0.1 mm 6 m/s 740 mmHg 77%
    15:00 +5°C° 0.2 mm 6 m/s 739 mmHg 77%
    16:00 +4°C° 0.2 mm 6 m/s 737 mmHg 77%
    17:00 +4°C° 0.2 mm 6 m/s 736 mmHg 78%
    18:00 +4°C° 0.4 mm 6 m/s 735 mmHg 79%
    19:00 +4°C° 0.4 mm 6 m/s 734 mmHg 80%
    20:00 +3°C° 0.4 mm 6 m/s 732 mmHg 82%
    21:00 +3°C° 0.8 mm 5 m/s 731 mmHg 83%
    22:00 +3°C° 0.8 mm 5 m/s 730 mmHg 85%
    23:00 +3°C° 0.8 mm 5 m/s 730 mmHg 87%

    Mâine, 24 Octombrie, Miercuri

    Timp Temperatura Precipitaţii Vânt Presiune Umiditate
    00:00 +4°C° 0.7 mm 4 m/s 729 mmHg 89%
    01:00 +4°C° 0.7 mm 4 m/s 728 mmHg 90%
    02:00 +4°C° 0.7 mm 3 m/s 728 mmHg 92%
    03:00 +4°C° 0.6 mm 3 m/s 727 mmHg 92%
    04:00 +4°C° 0.6 mm 3 m/s 727 mmHg 93%
    05:00 +5°C° 0.6 mm 2 m/s 727 mmHg 93%
    06:00 +5°C° 0.4 mm 2 m/s 727 mmHg 93%
    07:00 +5°C° 0.4 mm 2 m/s 727 mmHg 93%
    08:00 +4°C° 0.4 mm 2 m/s 727 mmHg 93%
    09:00 +5°C° 0.1 mm 2 m/s 728 mmHg 91%
    10:00 +6°C° 0.1 mm 2 m/s 729 mmHg 89%
    11:00 +6°C° 0.1 mm 2 m/s 729 mmHg 87%
    12:00 +5°C° 0.2 mm 3 m/s 730 mmHg 87%
    13:00 +5°C° 0.2 mm 3 m/s 731 mmHg 87%
    14:00 +5°C° 0.2 mm 3 m/s 732 mmHg 87%
    15:00 +5°C° 0.2 mm 4 m/s 732 mmHg 86%
    16:00 +5°C° 0.2 mm 4 m/s 733 mmHg 86%
    17:00 +3°C° 0.2 mm 5 m/s 734 mmHg 86%
    18:00 +3°C° 0.1 mm 5 m/s 735 mmHg 85%
    19:00 +3°C° 0.1 mm 5 m/s 736 mmHg 85%
    20:00 +3°C° 0.1 mm 5 m/s 736 mmHg 84%
    21:00 +3°C° 0 mm 4 m/s 737 mmHg 85%
    22:00 +3°C° 0 mm 4 m/s 738 mmHg 86%
    23:00 +1°C° 0 mm 4 m/s 738 mmHg 88%

    Poimâine, 25 Octombrie, Joi

    Timp Temperatura Precipitaţii Vânt Presiune Umiditate
    00:00 +1°C° 0 mm 4 m/s 739 mmHg 89%
    01:00 +1°C° 0 mm 3 m/s 739 mmHg 90%
    02:00 +1°C° 0 mm 3 m/s 739 mmHg 91%
    03:00 +1°C° 0 mm 3 m/s 739 mmHg 92%
    04:00 +1°C° 0 mm 3 m/s 739 mmHg 93%
    05:00 +2°C° 0 mm 2 m/s 739 mmHg 94%
    06:00 +2°C° 0 mm 2 m/s 739 mmHg 95%
    07:00 +2°C° 0 mm 2 m/s 739 mmHg 95%
    08:00 +2°C° 0 mm 2 m/s 739 mmHg 95%
    09:00 +3°C° 0 mm 2 m/s 739 mmHg 91%
    10:00 +3°C° 0 mm 3 m/s 739 mmHg 86%
    11:00 +4°C° 0 mm 3 m/s 738 mmHg 82%
    12:00 +4°C° 0.1 mm 3 m/s 738 mmHg 79%
    13:00 +5°C° 0.1 mm 3 m/s 738 mmHg 76%
    14:00 +5°C° 0.1 mm 3 m/s 738 mmHg 73%
    15:00 +5°C° 0 mm 2 m/s 738 mmHg 78%
    16:00 +4°C° 0 mm 2 m/s 738 mmHg 82%
    17:00 +3°C° 0 mm 2 m/s 738 mmHg 86%
    18:00 +3°C° 0 mm 2 m/s 738 mmHg 88%
    19:00 +2°C° 0 mm 2 m/s 739 mmHg 90%
    20:00 +2°C° 0 mm 2 m/s 739 mmHg 93%
    21:00 +1°C° 0 mm 2 m/s 739 mmHg 93%
    22:00 +1°C° 0 mm 2 m/s 739 mmHg 94%
    23:00 +1°C° 0 mm 2 m/s 739 mmHg 95%

    26 Octombrie, Vineri

    Timp Temperatura Precipitaţii Vânt Presiune Umiditate
    00:00 +1°C° 0 mm 2 m/s 740 mmHg 94%
    01:00 0°C° 0 mm 3 m/s 740 mmHg 94%
    02:00 0°C° 0 mm 3 m/s 740 mmHg 94%
    03:00 0°C° 0 mm 3 m/s 740 mmHg 94%
    04:00 0°C° 0 mm 3 m/s 741 mmHg 93%
    05:00 0°C° 0 mm 3 m/s 741 mmHg 93%
    06:00 0°C° 0 mm 3 m/s 741 mmHg 93%
    07:00 0°C° 0 mm 3 m/s 741 mmHg 93%
    08:00 0°C° 0 mm 3 m/s 741 mmHg 93%
    09:00 0°C° 0 mm 4 m/s 742 mmHg 87%
    10:00 +3°C° 0 mm 4 m/s 742 mmHg 82%
    11:00 +4°C° 0 mm 4 m/s 742 mmHg 76%
    12:00 +4°C° 0 mm 4 m/s 743 mmHg 73%
    13:00 +5°C° 0 mm 4 m/s 743 mmHg 71%
    14:00 +5°C° 0 mm 4 m/s 743 mmHg 68%
    15:00 +4°C° 0 mm 4 m/s 744 mmHg 73%
    16:00 +3°C° 0 mm 3 m/s 744 mmHg 77%
    17:00 +3°C° 0 mm 2 m/s 744 mmHg 82%
    18:00 +2°C° 0 mm 2 m/s 745 mmHg 85%
    19:00 +2°C° 0 mm 2 m/s 745 mmHg 88%
    20:00 +1°C° 0 mm 2 m/s 745 mmHg 91%
    21:00 +1°C° 0 mm 2 m/s 746 mmHg 92%
    22:00 +1°C° 0 mm 2 m/s 746 mmHg 93%
    23:00 +1°C° 0 mm 1 m/s 747 mmHg 93%

    27 Octombrie, Sâmbătă

    Timp Temperatura Precipitaţii Vânt Presiune Umiditate
    00:00 +1°C° 0 mm 1 m/s 747 mmHg 93%
    01:00 +1°C° 0 mm 1 m/s 747 mmHg 94%
    02:00 +1°C° 0 mm 1 m/s 747 mmHg 94%
    03:00 -1°C° 0 mm 2 m/s 746 mmHg 93%
    04:00 +1°C° 0 mm 2 m/s 746 mmHg 91%
    05:00 +1°C° 0 mm 3 m/s 746 mmHg 90%
    06:00 +1°C° 0.6 mm 3 m/s 745 mmHg 90%
    07:00 +1°C° 0.6 mm 4 m/s 745 mmHg 89%
    08:00 +1°C° 0.6 mm 5 m/s 744 mmHg 88%
    09:00 +2°C° 1.1 mm 5 m/s 743 mmHg 88%
    10:00 +2°C° 1.1 mm 5 m/s 743 mmHg 88%
    11:00 +3°C° 1.1 mm 5 m/s 742 mmHg 88%
    12:00 +3°C° 0.6 mm 5 m/s 741 mmHg 88%
    13:00 +4°C° 0.6 mm 6 m/s 741 mmHg 88%
    14:00 +5°C° 0.6 mm 6 m/s 740 mmHg 88%
    15:00 +6°C° 0.3 mm 5 m/s 740 mmHg 88%
    16:00 +6°C° 0.3 mm 5 m/s 740 mmHg 89%
    17:00 +6°C° 0.3 mm 4 m/s 741 mmHg 90%
    18:00 +6°C° 0.1 mm 4 m/s 741 mmHg 90%
    19:00 +5°C° 0.1 mm 4 m/s 741 mmHg 90%
    20:00 +5°C° 0.1 mm 4 m/s 742 mmHg 90%
    21:00 +5°C° 0 mm 3 m/s 742 mmHg 90%
    22:00 +4°C° 0 mm 3 m/s 743 mmHg 90%
    23:00 +4°C° 0 mm 3 m/s 743 mmHg 91%

    28 Octombrie, Duminică

    Timp Temperatura Precipitaţii Vânt Presiune Umiditate
    00:00 +3°C° 0 mm 3 m/s 743 mmHg 91%
    01:00 +3°C° 0 mm 3 m/s 744 mmHg 92%
    02:00 +4°C° 0 mm 2 m/s 744 mmHg 93%
    03:00 +3°C° 0 mm 2 m/s 744 mmHg 93%
    04:00 +3°C° 0 mm 2 m/s 744 mmHg 94%
    05:00 +3°C° 0 mm 2 m/s 744 mmHg 94%
    06:00 +3°C° 0 mm 2 m/s 744 mmHg 94%
    07:00 +2°C° 0 mm 2 m/s 744 mmHg 94%
    08:00 +2°C° 0 mm 2 m/s 744 mmHg 94%
    09:00 +3°C° 0 mm 2 m/s 744 mmHg 90%
    10:00 +4°C° 0 mm 2 m/s 745 mmHg 86%
    11:00 +5°C° 0 mm 2 m/s 745 mmHg 82%
    12:00 +6°C° 0 mm 2 m/s 744 mmHg 82%
    13:00 +6°C° 0 mm 2 m/s 744 mmHg 83%
    14:00 +6°C° 0 mm 2 m/s 744 mmHg 83%
    15:00 +6°C° 0.1 mm 1 m/s 744 mmHg 86%
    16:00 +6°C° 0.1 mm 1 m/s 744 mmHg 89%
    17:00 +5°C° 0.1 mm 1 m/s 744 mmHg 92%
    18:00 +5°C° 0.6 mm 1 m/s 744 mmHg 92%
    19:00 +5°C° 0.6 mm 1 m/s 743 mmHg 92%
    20:00 +5°C° 0.6 mm 1 m/s 743 mmHg 92%
    21:00 +5°C° 0.7 mm 1 m/s 744 mmHg 92%
    22:00 +5°C° 0.7 mm 1 m/s 744 mmHg 92%
    23:00 +5°C° 0.7 mm 1 m/s 744 mmHg 92%

    29 Octombrie, Luni

    Timp Temperatura Precipitaţii Vânt Presiune Umiditate
    00:00 +5°C° 0.3 mm 1 m/s 745 mmHg 92%
    01:00 +4°C° 0.3 mm 2 m/s 745 mmHg 93%
    02:00 +4°C° 0.3 mm 2 m/s 746 mmHg 93%
    03:00 +4°C° 0.2 mm 2 m/s 746 mmHg 92%
    04:00 +3°C° 0.2 mm 3 m/s 747 mmHg 91%
    05:00 +3°C° 0.2 mm 3 m/s 747 mmHg 90%
    06:00 +3°C° 0.1 mm 3 m/s 748 mmHg 89%
    07:00 +3°C° 0.1 mm 4 m/s 748 mmHg 87%
    08:00 +3°C° 0.1 mm 4 m/s 749 mmHg 86%
    09:00 +4°C° 0 mm 4 m/s 750 mmHg 84%
    10:00 +3°C° 0 mm 5 m/s 750 mmHg 81%
    11:00 +3°C° 0 mm 5 m/s 751 mmHg 79%
    12:00 +3°C° 0.3 mm 5 m/s 751 mmHg 79%
    13:00 +5°C° 0.3 mm 5 m/s 752 mmHg 79%
    14:00 +5°C° 0.3 mm 5 m/s 752 mmHg 79%
    15:00 +5°C° 0.2 mm 5 m/s 753 mmHg 79%
    16:00 +4°C° 0.2 mm 4 m/s 753 mmHg 80%
    17:00 +4°C° 0.2 mm 4 m/s 754 mmHg 80%
    18:00 +3°C° 0 mm 4 m/s 754 mmHg 83%
    19:00 +3°C° 0 mm 4 m/s 755 mmHg 86%
    20:00 +2°C° 0 mm 3 m/s 756 mmHg 89%
    21:00 +2°C° 0 mm 3 m/s 756 mmHg 91%
    22:00 +2°C° 0 mm 2 m/s 757 mmHg 93%
    23:00 +2°C° 0 mm 2 m/s 757 mmHg 95%
    Arată mai mult